TimeCET,TemperatureF,Dew PointF,Humidity,Sea Level PressureIn,VisibilityMPH,Wind Direction,Wind SpeedMPH,Gust SpeedMPH,PrecipitationIn,Events,Conditions,WindDirDegrees,DateUTC
12:00 AM,51.8,23.0,33,30.15,-9999.0,West,16.1,-,N/A,,Clear,280,2013-02-07 23:00:00
12:30 AM,51.8,23.0,33,30.15,-9999.0,WNW,16.1,-,N/A,,Clear,290,2013-02-07 23:30:00
1:00 AM,51,21,18,30.15,12,NW,10.4,,,,,310,2013-02-08 00:00:00
1:00 AM,51.8,23.0,33,30.12,-9999.0,NW,9.2,-,N/A,,Clear,310,2013-02-08 00:00:00
1:30 AM,51.8,23.0,33,30.12,-9999.0,West,6.9,-,N/A,,Clear,280,2013-02-08 00:30:00
2:00 AM,50.0,23.0,35,30.12,-9999.0,West,10.4,-,N/A,,Clear,280,2013-02-08 01:00:00
2:30 AM,51.8,23.0,33,30.12,-9999.0,WNW,10.4,-,N/A,,Clear,290,2013-02-08 01:30:00
3:00 AM,51.8,24.8,35,30.12,-9999.0,West,10.4,-,N/A,,Clear,280,2013-02-08 02:00:00
3:30 AM,51.8,23.0,33,30.09,-9999.0,WNW,11.5,-,N/A,,Clear,290,2013-02-08 02:30:00
4:00 AM,50.0,24.8,37,30.09,-9999.0,West,10.4,-,N/A,,Clear,280,2013-02-08 03:00:00
4:30 AM,50.0,24.8,37,30.06,-9999.0,WNW,11.5,-,N/A,,Clear,290,2013-02-08 03:30:00
5:00 AM,50.0,24.8,37,30.06,-9999.0,West,11.5,-,N/A,,Clear,280,2013-02-08 04:00:00
5:30 AM,48.2,24.8,40,30.06,-9999.0,Calm,Calm,-,N/A,,Clear,0,2013-02-08 04:30:00
6:00 AM,48.2,24.8,40,30.06,-9999.0,South,5.8,-,N/A,,Clear,190,2013-02-08 05:00:00
6:30 AM,46.4,24.8,43,30.06,-9999.0,Variable,2.3,-,N/A,,Clear,0,2013-02-08 05:30:00
7:00 AM,47,22,25,30.06,12,WNW,10.4,,,,,290,2013-02-08 06:00:00
7:00 AM,48.2,24.8,40,30.04,-9999.0,WNW,10.4,-,N/A,,Clear,290,2013-02-08 06:00:00
7:30 AM,48.2,24.8,40,30.04,-9999.0,West,13.8,-,N/A,,Clear,280,2013-02-08 06:30:00
8:00 AM,48.2,24.8,40,30.04,-9999.0,WNW,11.5,-,N/A,,Clear,290,2013-02-08 07:00:00
8:30 AM,48.2,24.8,40,30.04,-9999.0,West,10.4,-,N/A,,Clear,280,2013-02-08 07:30:00
9:00 AM,48.2,24.8,40,30.04,-9999.0,WNW,10.4,-,N/A,,Clear,290,2013-02-08 08:00:00
9:30 AM,50.0,26.6,40,30.04,6.2,West,12.7,-,N/A,,Partly Cloudy,270,2013-02-08 08:30:00
10:00 AM,50.0,26.6,40,30.04,6.2,WNW,8.1,-,N/A,,Partly Cloudy,300,2013-02-08 09:00:00
10:30 AM,51.8,26.6,38,30.04,6.2,WNW,12.7,-,N/A,,Partly Cloudy,290,2013-02-08 09:30:00
11:00 AM,53.6,28.4,38,30.04,6.2,WNW,18.4,29.9,N/A,,Partly Cloudy,300,2013-02-08 10:00:00
11:30 AM,55.4,28.4,36,30.04,6.2,NW,12.7,-,N/A,,Partly Cloudy,310,2013-02-08 10:30:00
12:00 PM,55.4,28.4,36,30.01,6.2,WNW,15.0,-,N/A,,Partly Cloudy,290,2013-02-08 11:00:00
12:30 PM,55.4,28.4,36,30.01,6.2,WNW,20.7,-,N/A,,Partly Cloudy,290,2013-02-08 11:30:00
1:00 PM,56,26,20,30.01,19,WNW,15.0,,,,Scattered Clouds,300,2013-02-08 12:00:00
1:00 PM,57.2,28.4,33,29.98,6.2,WNW,15.0,-,N/A,,Partly Cloudy,300,2013-02-08 12:00:00
1:30 PM,57.2,28.4,33,29.98,6.2,WNW,19.6,-,N/A,,Partly Cloudy,300,2013-02-08 12:30:00
2:00 PM,57.2,26.6,31,29.95,6.2,WNW,17.3,28.8,N/A,,Partly Cloudy,300,2013-02-08 13:00:00
2:30 PM,59.0,26.6,29,29.95,6.2,NW,11.5,-,N/A,,Partly Cloudy,310,2013-02-08 13:30:00
3:00 PM,60.8,26.6,27,29.92,6.2,WNW,17.3,-,N/A,,Partly Cloudy,290,2013-02-08 14:00:00
3:30 PM,60.8,28.4,29,29.92,6.2,WNW,15.0,-,N/A,,Partly Cloudy,290,2013-02-08 14:30:00
4:00 PM,60.8,26.6,27,29.92,6.2,NW,17.3,-,N/A,,Scattered Clouds,310,2013-02-08 15:00:00
4:30 PM,60.8,28.4,29,29.92,6.2,WNW,15.0,-,N/A,,Scattered Clouds,290,2013-02-08 15:30:00
5:00 PM,60.8,26.6,27,29.89,6.2,WNW,12.7,-,N/A,,Scattered Clouds,290,2013-02-08 16:00:00
5:30 PM,60.8,26.6,27,29.89,6.2,WNW,15.0,-,N/A,,Partly Cloudy,300,2013-02-08 16:30:00
6:00 PM,59.0,28.4,31,29.92,6.2,WNW,17.3,-,N/A,,Partly Cloudy,300,2013-02-08 17:00:00
6:30 PM,59.0,28.4,31,29.92,6.2,WNW,15.0,-,N/A,,Scattered Clouds,300,2013-02-08 17:30:00
7:00 PM,57,26,18,29.92,12,WNW,13.8,,,,Scattered Clouds,300,2013-02-08 18:00:00
7:00 PM,57.2,28.4,33,29.92,6.2,WNW,13.8,-,N/A,,Partly Cloudy,300,2013-02-08 18:00:00
7:30 PM,57.2,30.2,36,29.92,6.2,NW,18.4,-,N/A,,Partly Cloudy,310,2013-02-08 18:30:00
8:00 PM,55.4,30.2,38,29.95,6.2,NW,18.4,-,N/A,,Partly Cloudy,310,2013-02-08 19:00:00
8:30 PM,55.4,32.0,41,29.95,6.2,NNW,16.1,-,N/A,,Partly Cloudy,330,2013-02-08 19:30:00
9:00 PM,55.4,32.0,41,29.95,6.2,North,4.6,-,N/A,,Partly Cloudy,10,2013-02-08 20:00:00
9:30 PM,53.6,30.2,41,29.95,6.2,West,4.6,-,N/A,,Partly Cloudy,260,2013-02-08 20:30:00
10:00 PM,55.4,30.2,38,29.95,6.2,WNW,13.8,-,N/A,,Partly Cloudy,300,2013-02-08 21:00:00
10:30 PM,55.4,28.4,36,29.98,6.2,NW,8.1,-,N/A,,Partly Cloudy,310,2013-02-08 21:30:00
11:00 PM,53.6,32.0,44,29.98,6.2,NNE,6.9,-,N/A,,Scattered Clouds,20,2013-02-08 22:00:00
11:30 PM,53.6,30.2,41,29.98,6.2,North,8.1,-,N/A,,Scattered Clouds,10,2013-02-08 22:30:00